HULIANWANG DIGUI-145

导读 | 豆包AI

HULIANWANG DIGUI-145是中国于北京时间2026年1月13日成功发射的低轨卫星。该卫星依托中国航天成熟技术体系打造,服务于低轨互联网星座建设,将提供全球覆盖的高速宽带通信服务,增强天地一体化网络通信能力,助力物联网、偏远地区通信等领域发展,推动中国空间信息基础设施建设迈上新台阶。

Basic Information
目录编号:
67443
目录名称:
HULIANWANG DIGUI-145
国际标识:
2026-007J
轨道中心:
EARTH
卫星名称:
HULIANWANG DIGUI-145
卫星全名:
HULIANWANG DIGUI-145
卫星状态:
在轨 (已飞行81 天)
发射日期:
2026-01-13 UTC
国别 :
中国 (CN)
星等 :
--
Orbit Information
数据来源 国际轨道数据 AOE轨道数据
星历时间 2026-04-04T02:16:43+0800
9小时前
查看轨道信息
2026-04-01T14:00:00+0800
2天前
查看轨道信息
半长轴 7527.434km 7527.472km
偏心率 0.0000299 0.0001108
轨道倾角 50.012° 50.009°
近地点辐角 93.485° 26.559°
升交点赤经 352.407° 1.415°
平近点角 266.605° 186.530°
近地点 1149.071km 1148.5km
远地点 1149.523km 1150.17km
周期 108.325分钟 108.326分钟
每日圈数 13.293286 13.293185
Detailed Information
使用方式:
暂无
2D Orbit Map
3D Orbit Map
Orbit Altitude Analysis Chart
Orbit Inclination Analysis Chart
Orbit Comprehensive Analysis Chart
View Comprehensive Chart